Location: Unspecified
(0.0000°N, 0.0000°E)
Time: 09:07:37
(UTC+00:00)

XW-2B - Pass Details

Date: 14 December 2017
Orbit: 511 x 531 km, 97.5° (Epoch: 20 January)

Event Time Altitude Azimuth Distance (km) Brightness Sun altitude
Rises 18:18:34 0° 191° (S) 2,623 ? -5.4°
Reaches altitude 10° 18:20:57 10° 205° (SSW) 1,737 ? -6.0°
Maximum altitude 18:23:57 23° 259° (WSW) 1,127 ? -6.7°
Drops below altitude 10° 18:26:58 10° 312° (NW) 1,738 ? -7.4°
Sets 18:29:22 0° 327° (NNW) 2,625 ? -7.9°
